Location: Treviso
(45.6669°N, 12.2430°E)
Time: 02:05:50
(UTC+02:00)

ISS - Pass Details

Date: 25 May 2018
Orbit: 402 x 407 km, 51.6° (Epoch: 26 May)

Event Time Altitude Azimuth Distance (km) Brightness Sun altitude
Rises 02:04:52 0° 298° (WNW) 2,320 0.2 -22.2°
Reaches altitude 10° 02:06:58 10° 301° (WNW) 1,459 -0.8 -22.1°
Enters shadow 02:08:17 22° 304° (NW) 933 -1.9 -22.0°
